Regional Weather Roundup
Issued by NWS Sioux Falls, SD

Home | Current Version | Previous Version | Text Only | Print | Product List | Glossary Off
Versions: 1 2 3 4 5 6 7 8 9 10 11 12 13 14 15 16 17 18 19 20 21 22 23 24 25 26 27 28 29 30 31 32 33 34 35 36 37 38 39 40 41 42 43 44 45 46 47 48 49 50

000
ASUS43 KFSD 252110
RWRFSD

WEATHER ROUNDUP FOR SE SOUTH DAKOTA/SW MINNESOTA/NW IOWA
NATIONAL WEATHER SERVICE SIOUX FALLS SD
400 PM CDT SAT MAR 25 2017

NOTE: "FAIR" INDICATES FEW OR NO CLOUDS BELOW 12,000 FEET WITH NO
SIGNIFICANT WEATHER AND OR OBSTRUCTIONS TO VISIBILITY.


SDZ038>040-050-052>070-252200-
SOUTHEAST SOUTH DAKOTA

CITY           SKY/WX    TMP DP  RH WIND       PRES   REMARKS
BROOKINGS      CLOUDY    40  35  83 NE9       30.01F
CHAMBERLAIN    SUNNY     53  36  53 E10       29.97F
HURON          CLOUDY    47  35  63 E12       30.01F
MADISON        CLOUDY    39  39 100 NE12      30.01S
MITCHELL       CLOUDY    46  36  68 VRB6      30.02F
SIOUX FALLS    CLOUDY    44  38  79 E15       29.99F
WINNER         FAIR      61  31  32 E10G17    29.93F
YANKTON        CLOUDY    43  37  81 NE9       29.99F
$$

MNZ071-072-080-081-089-090-097-098-252200-
SOUTHWEST MINNESOTA

CITY           SKY/WX    TMP DP  RH WIND       PRES   REMARKS
FAIRMONT       CLOUDY    38  36  92 NE13      30.02F
JACKSON        CLOUDY    37  36  93 E17       30.00F FOG
LUVERNE        CLOUDY    37  36  93 E12       30.00F
MARSHALL       CLOUDY    42  36  79 E13       30.04F
MONTEVIDEO     CLOUDY    39  36  87 SE10      30.09S
PIPESTONE      CLOUDY    39  34  81 E12       29.99F
REDWOOD FALLS  CLOUDY    42  35  76 NE8       30.05F
TRACY          CLOUDY    42  38  87 E12       30.03F
WINDOM         CLOUDY    39  37  93 NE13      30.02S
WORTHINGTON    CLOUDY    38  36  92 NE17      30.00F FOG
$$

IAZ001>003-012>014-020>022-031-032-NEZ013-014-SDZ071-252200-
NORTHWEST IOWA

CITY           SKY/WX    TMP DP  RH WIND       PRES   REMARKS
CHEROKEE       CLOUDY    39  38  97 NE9G17    29.97F FOG
ESTHERVILLE    CLOUDY    37  37 100 NE17      29.99F FOG
LE MARS        CLOUDY    41  37  87 NE13      29.99F
ORANGE CITY    CLOUDY    39  37  93 E14G21    29.97F
SHELDON        CLOUDY    39  39 100 NE18      29.96F
SIOUX CITY     CLOUDY    41  38  89 NE14      29.98F
SPENCER        CLOUDY    39  37  92 NE20      29.98F
STORM LAKE     CLOUDY    37  37 100 NE17G24   29.96F FOG
$$

ABBREVIATIONS USED IN REMARKS
   TC - TEMPERATURE IN CELSIUS
  WCI - WIND CHILL INDEX
   HX - HEAT INDEX
  VSB - VISIBILITY





USA.gov is the U.S. government's official web portal to all federal, state and local government web resources and services.